Tacoma Narrows, WA
on Tuesday, January 29, 2013

Tuesday
Previous Day Next Day
Daily Summary
 ActualAverageRecord
Temperature
Mean Temperature °F °F  
Max Temperature 48°F 46°F 53°F (1998)
Min Temperature 43°F 38°F 28°F (2000)
Degree Days
Heating Degree Days 20    
Moisture
Dew Point 41°F   
Average Humidity 83    
Maximum Humidity 87    
Minimum Humidity 74    
Precipitation
Precipitation 0.12 in in in ()
Wind
Wind Speed 7 mph   
Max Wind Speed 16 mph   
Max Gust Speed 24 mph   
Visibility 10 miles   
Events Rain   
Averages and records for this station are not official NWS values.
Key: T is trace of precipitation, MM is missing value
Source: NWS Daily Summary
Seasonal Weather Averages
Time(PST)TemperatureDew PointHumidity Pressure Visibility Wind DirectionWind SpeedGust SpeedPrecipitationEvents Conditions
12:53 AM 43.0°F 39.0°F 86% 30.12 in 10.0 miles SSW 5.8 mph - 0.01 in Rain Light Rain
1:53 AM 44.1°F 39.0°F 82% 30.13 in 10.0 miles South 4.6 mph - 0.00 in Rain Light Rain
2:53 AM 44.1°F 39.9°F 85% 30.14 in 10.0 miles South 6.9 mph - 0.02 in Rain Light Rain
3:53 AM 44.1°F 39.9°F 85% 30.15 in 10.0 miles South 4.6 mph - 0.01 in Rain Light Rain
4:08 AM 44.6°F 41.0°F 87% 30.15 in 10.0 miles South 3.5 mph - 0.00 in Rain Light Rain
4:53 AM 45.0°F 41.0°F 86% 30.16 in 10.0 miles South 5.8 mph - 0.01 in Rain Light Rain
5:53 AM 45.0°F 41.0°F 86% 30.18 in 10.0 miles SSW 6.9 mph - 0.00 in Rain Light Rain
6:53 AM 45.0°F 41.0°F 86% 30.20 in 10.0 miles SSW 4.6 mph - 0.00 in   Overcast
7:53 AM 45.0°F 41.0°F 86% 30.23 in 10.0 miles SSW 6.9 mph - 0.00 in   Overcast
8:53 AM 46.0°F 41.0°F 83% 30.25 in 10.0 miles SSW 8.1 mph - N/A   Overcast
9:53 AM 46.0°F 41.0°F 83% 30.27 in 10.0 miles SW 4.6 mph - N/A   Overcast
10:53 AM 46.0°F 42.1°F 86% 30.30 in 10.0 miles West 3.5 mph - N/A   Overcast
11:53 AM 46.9°F 42.1°F 83% 30.31 in 10.0 miles SSW 5.8 mph - 0.01 in   Overcast
12:07 PM 46.4°F 42.8°F 87% 30.30 in 10.0 miles SSW 4.6 mph - N/A   Overcast
12:53 PM 48.0°F 42.1°F 80% 30.31 in 10.0 miles South 8.1 mph - N/A   Overcast
1:53 PM 48.0°F 42.1°F 80% 30.32 in 10.0 miles SSW 8.1 mph - N/A   Overcast
2:53 PM 48.9°F 41.0°F 74% 30.32 in 10.0 miles SSW 8.1 mph 17.3 mph N/A   Overcast
3:53 PM 48.0°F 41.0°F 77% 30.33 in 10.0 miles SSW 12.7 mph 20.7 mph N/A   Overcast
4:53 PM 48.0°F 41.0°F 77% 30.34 in 10.0 miles SSW 11.5 mph 19.6 mph N/A   Overcast
5:53 PM 48.0°F 41.0°F 77% 30.35 in 10.0 miles SSW 10.4 mph 24.2 mph N/A   Overcast
6:53 PM 46.9°F 41.0°F 80% 30.34 in 10.0 miles SSW 13.8 mph 21.9 mph N/A   Mostly Cloudy
7:53 PM 46.9°F 41.0°F 80% 30.36 in 10.0 miles SSW 9.2 mph 18.4 mph N/A   Overcast
8:53 PM 45.0°F 41.0°F 86% 30.35 in 5.0 miles SSW 11.5 mph 20.7 mph 0.04 in Rain Rain
9:42 PM 44.6°F 39.2°F 81% 30.33 in 10.0 miles South 11.5 mph 17.3 mph 0.02 in   Overcast
9:53 PM 45.0°F 39.9°F 82% 30.34 in 10.0 miles South 10.4 mph - 0.02 in   Overcast
10:02 PM 44.6°F 39.2°F 81% 30.34 in 10.0 miles South 10.4 mph - N/A   Overcast
10:20 PM 44.6°F 39.2°F 81% 30.34 in 10.0 miles South 9.2 mph - N/A   Overcast
10:53 PM 45.0°F 41.0°F 86% 30.34 in 10.0 miles South 16.1 mph 20.7 mph N/A   Overcast
11:46 PM 44.6°F 41.0°F 87% 30.33 in 10.0 miles South 16.1 mph - N/A   Overcast
11:53 PM 45.0°F 41.0°F 86% 30.34 in 10.0 miles South 13.8 mph - N/A   Overcast
Moon Phase
Jan. 29 Feb. 03 Feb. 10 Feb. 17 Feb. 25
Sunrise:07:39 AM (PST) Moon Rise:08:26 PM (PST)1/29
Sunset:05:08 PM (PST) Moon Set:08:24 AM (PST)1/29

Copyright © 2014 The Weather Underground, Inc.